[[{"header":{"parameterUnit":"m.s-1","parameterCategory":1,"la1":30.2991,"la2":30.254,"lo1":-89.0895,"lo2":-89.0444,"dy":0.0017,"dx":0.0017,"nx":28,"ny":28,"refTime":"2024-05-28T21:00:00:Z","depth":0,"parameterNumber":2,"parameterNumberName":"U-component_of_WINDS"},"data":[0,0,0,0,0,0,0,0,0,0,0,0,0,0,0,0,0,0,0,0,0,0,0,0,0,0,0,0,0,0,0,0,0,0,0,0,0,0,0,0,0,0,0,0,0,0,0,0,0,0,0,0,0,0,0,0,0,0,0.4744,0.4746,0,0.4882,0.4884,0.4886,0.4907,0.4906,0.4905,0.4903,0.5051,0.5056,0.5061,0,0,0,0,0,0,0,0,0,0,0,0,0,0.4504,0.4508,0.4744,0.4746,0.4748,0.4882,0.4884,0.4886,0.4907,0.4906,0.4904,0.4903,0.5049,0.5055,0.5061,0,0,0,0,0,0,0,0,0,0,0,0,0,0.4622,0.4509,0.4744,0.4774,0.4778,0.4882,0.4884,0.4886,0.4908,0.4906,0.4904,0.4902,0.5047,0.5054,0.5062,0.5146,0,0,0.5085,0.5088,0,0,0,0,0,0,0,0,0.4615,0.4631,0.4768,0.4772,0.4777,0.4875,0.4853,0.4974,0.4908,0.4859,0.4903,0.4901,0.4994,0.5006,0.5036,0.5153,0.5159,0.5086,0.509,0.5094,0.5096,0,0,0,0,0,0,0,0.4607,0.4625,0.4799,0.477,0.4776,0.4783,0.4797,0.4876,0.4935,0.4863,0.4865,0.488,0.4996,0.5029,0.504,0.5162,0.5086,0.5092,0.5097,0.51,0.5355,0.5358,0,0,0,0,0,0,0.4592,0.4618,0.4795,0.4803,0.469,0.4789,0.4805,0.4846,0.4935,0.4946,0.4882,0.4881,0.5017,0.5031,0.5045,0.515,0.5094,0.5101,0.5105,0.5353,0.5356,0.5358,0,0,0,0,0,0,0.4587,0.4608,0.4789,0.4711,0.4735,0.4795,0.484,0.485,0.4882,0.4949,0.496,0.4904,0.5016,0.5034,0.5121,0.5156,0.5104,0.5111,0.5351,0.5354,0.5357,0.536,0,0,0,0,0,0,0.458,0.4606,0.4637,0.4711,0.4739,0.4861,0.4843,0.4854,0.4894,0.4894,0.4972,0.4984,0.5016,0.5109,0.5128,0.5165,0.5117,0.5348,0.5352,0.5356,0.5357,0.5363,0.5368,0,0,0,0,0,0.4571,0.4634,0.4639,0.466,0.4779,0.4863,0.4878,0.4912,0.4897,0.493,0.4973,0.4981,0.5148,0.5118,0.5139,0.5179,0.5346,0.5351,0.5356,0.5355,0.5362,0.5368,0,0,0,0,0,0,0.4565,0.4644,0.4651,0.4739,0.4793,0.4866,0.4909,0.4919,0.4981,0.4978,0.502,0.5037,0.5121,0.5159,0.5124,0.5266,0.5246,0.5256,0.5238,0.5246,0.5251,0.5241,0.5123,0,0,0,0,0,0.4573,0.4632,0.4699,0.4771,0.4798,0.4848,0.4886,0.4907,0.4967,0.499,0.504,0.5099,0.5164,0.5207,0.5271,0.5363,0.5381,0.5401,0.5406,0.541,0.5419,0.5471,0.5481,0.5375,0.5375,0.5375,0,0,0.4591,0.4642,0.4678,0.4771,0.4816,0.4878,0.4868,0.4934,0.4981,0.5001,0.5085,0.5123,0.5192,0.5281,0.5323,0.5315,0.5452,0.5417,0.542,0.5426,0.5477,0.5487,0.5496,0.5378,0.5377,0.5377,0,0,0.4657,0.4701,0.4765,0.481,0.4877,0.4911,0.4926,0.4997,0.5023,0.5107,0.5123,0.5181,0.5293,0.5341,0.538,0.5464,0.5474,0.5484,0.5513,0.5563,0.5571,0.5579,0.561,0.562,0.5491,0.5491,0.5491,0,0.4672,0.4765,0.4797,0.4863,0.4904,0.4922,0.4989,0.5031,0.5117,0.5146,0.5135,0.5276,0.5324,0.5424,0.5445,0.5475,0.5496,0.5475,0.5567,0.5575,0.5583,0.5612,0.5624,0.5492,0.5492,0.5492,0.5492,0,0.478,0.4844,0.4888,0.4969,0.5015,0.508,0.5124,0.5167,0.5184,0.5219,0.5305,0.5363,0.5439,0.5464,0.5483,0.5568,0.5561,0.5558,0.554,0.5593,0.5622,0.5633,0.5493,0.5493,0.5493,0.5492,0,0,0.4846,0.4943,0.4958,0.4995,0.5071,0.5122,0.5189,0.5261,0.5298,0.5356,0.5414,0.5509,0.5506,0.5551,0.5575,0.5618,0.5682,0.5611,0.5613,0.5622,0.5781,0.5783,0.5795,0.5688,0.5691,0.5692,0.5775,0,0.4921,0.5039,0.507,0.5171,0.5231,0.525,0.5308,0.5362,0.5396,0.5454,0.5492,0.5558,0.555,0.5577,0.5621,0.5664,0.5714,0.5659,0.5745,0.5747,0.5727,0.581,0.5813,0.5888,0.5786,0.5788,0.579,0,0.5024,0.5083,0.5189,0.5257,0.5283,0.5335,0.5404,0.5458,0.552,0.5542,0.5591,0.5611,0.5683,0.5659,0.576,0.5722,0.5759,0.5786,0.579,0.58,0.5772,0.5823,0.5913,0.5924,0.5808,0.5806,0.5805,0,0.5062,0.5168,0.5245,0.5276,0.5357,0.5393,0.5429,0.5488,0.553,0.5591,0.5619,0.5688,0.5726,0.578,0.5819,0.5798,0.5917,0.5897,0.5939,0.5938,0.5964,0.5962,0.6061,0.5986,0.5986,0.5986,0.5986,0,0.5143,0.5208,0.5263,0.5311,0.5384,0.542,0.5492,0.5529,0.5582,0.5638,0.5659,0.5712,0.5759,0.5818,0.5849,0.5929,0.5946,0.5967,0.5974,0.5966,0.5963,0.5991,0.5987,0.5989,0.5988,0.5988,0.5987,0,0.5199,0.5238,0.5324,0.5392,0.5411,0.5462,0.5522,0.557,0.5604,0.5676,0.5694,0.5749,0.5821,0.5864,0.5955,0.5976,0.6064,0.6069,0.6042,0.6046,0.6086,0.6082,0.6208,0.6227,0.6138,0.6139,0.6139,0,0.5248,0.5298,0.5371,0.5409,0.5445,0.5507,0.5549,0.5586,0.563,0.5703,0.5743,0.5815,0.5874,0.5988,0.6037,0.6107,0.6115,0.6154,0.6126,0.6115,0.6117,0.6114,0.6119,0.6159,0.616,0.6161,0.6161,0,0.5332,0.5348,0.5407,0.5473,0.5522,0.5577,0.5631,0.5661,0.5708,0.5756,0.5828,0.5875,0.5966,0.6039,0.6112,0.6152,0.6165,0.6169,0.6183,0.6175,0.6158,0.6169,0.6056,0.6167,0.6166,0.6166,0.6166,0.6165,0.5386,0.5431,0.549,0.5555,0.5599,0.5649,0.5697,0.5737,0.5797,0.5873,0.5892,0.5968,0.603,0.613,0.6171,0.6232,0.6226,0.6246,0.6251,0.6255,0.6257,0.6147,0.6246,0.6245,0.6245,0.6245,0.6245,0,0.5472,0.551,0.5569,0.5643,0.5695,0.57,0.5761,0.5804,0.587,0.5925,0.5982,0.6066,0.6136,0.619,0.6262,0.6301,0.6309,0.6319,0.6317,0.6326,0.6257,0.6239,0.6311,0.6311,0.6311,0.6311,0.6311,0.6311,0.5522,0.5599,0.5622,0.5722,0.576,0.5833,0.5867,0.5914,0.5958,0.6049,0.6107,0.6141,0.6196,0.6272,0.6337,0.6352,0.6378,0.6387,0.6402,0.6338,0.633,0.6324,0.6306,0.6392,0.6392,0.6466,0.6467,0.6467]},{"header":{"parameterUnit":"m.s-1","parameterCategory":1,"la1":30.2991,"la2":30.254,"lo1":-89.0895,"lo2":-89.0444,"dy":0.0017,"dx":0.0017,"nx":28,"ny":28,"refTime":"2024-05-28T21:00:00:Z","depth":0,"parameterNumber":3,"parameterNumberName":"V-component_of_WINDS"},"data":[0,0,0,0,0,0,0,0,0,0,0,0,0,0,0,0,0,0,0,0,0,0,0,0,0,0,0,0,0,0,0,0,0,0,0,0,0,0,0,0,0,0,0,0,0,0,0,0,0,0,0,0,0,0,0,0,0,0,2.554,2.5539,0,2.5488,2.5487,2.5487,2.5394,2.5392,2.5391,2.5389,2.5338,2.5338,2.5338,0,0,0,0,0,0,0,0,0,0,0,0,0,2.5561,2.5561,2.554,2.5539,2.5539,2.5488,2.5487,2.5487,2.5394,2.5392,2.539,2.5388,2.5337,2.5338,2.5338,0,0,0,0,0,0,0,0,0,0,0,0,0,2.5535,2.5561,2.554,2.5486,2.5481,2.5488,2.5487,2.5487,2.5395,2.5392,2.539,2.5387,2.5337,2.5338,2.5338,2.5394,0,0,2.534,2.534,0,0,0,0,0,0,0,0,2.5536,2.5534,2.5495,2.549,2.5484,2.5445,2.5476,2.5456,2.5396,2.5428,2.5389,2.5386,2.5376,2.5373,2.5369,2.5392,2.5389,2.534,2.534,2.534,2.534,0,0,0,0,0,0,0,2.5538,2.5536,2.5519,2.5494,2.5488,2.5465,2.5459,2.5472,2.5417,2.5425,2.5418,2.5413,2.5372,2.5369,2.5367,2.5389,2.534,2.534,2.534,2.534,2.5455,2.5457,0,0,0,0,0,0,2.5547,2.5538,2.5521,2.5518,2.5504,2.5467,2.546,2.546,2.5417,2.5408,2.5415,2.5409,2.5369,2.5367,2.5365,2.5427,2.534,2.534,2.5341,2.5452,2.5455,2.5458,0,0,0,0,0,0,2.5548,2.5547,2.5523,2.5526,2.5521,2.547,2.5471,2.5461,2.5457,2.541,2.54,2.5422,2.5367,2.5364,2.5387,2.5424,2.5341,2.5341,2.5449,2.5453,2.5457,2.5553,0,0,0,0,0,0,2.5549,2.5548,2.5568,2.5527,2.5521,2.5546,2.5473,2.5461,2.5458,2.5449,2.5413,2.5404,2.5365,2.5387,2.5388,2.5423,2.5341,2.5445,2.5451,2.5456,2.5547,2.556,2.5572,0,0,0,0,0,2.555,2.5598,2.557,2.5568,2.5546,2.5549,2.5545,2.5498,2.5461,2.5481,2.5451,2.5406,2.542,2.539,2.539,2.5427,2.5443,2.5449,2.5455,2.5541,2.5558,2.5572,0,0,0,0,0,0,2.5645,2.5591,2.5559,2.5595,2.5577,2.5533,2.5557,2.5517,2.551,2.5502,2.5445,2.5437,2.5468,2.5449,2.5417,2.5478,2.5424,2.5431,2.549,2.5505,2.5517,2.5522,2.5342,0,0,0,0,0,2.567,2.5676,2.5629,2.5665,2.5657,2.5609,2.5609,2.5574,2.5553,2.5546,2.5517,2.5499,2.5499,2.5501,2.5499,2.5543,2.5534,2.5568,2.5581,2.5592,2.5598,2.5621,2.5635,2.5479,2.5479,2.5479,0,0,2.5721,2.5693,2.57,2.5683,2.5665,2.5674,2.5603,2.5615,2.5621,2.5547,2.5567,2.5546,2.5522,2.5557,2.557,2.5542,2.5639,2.56,2.5608,2.5609,2.5629,2.5643,2.5657,2.5483,2.5483,2.5482,0,0,2.582,2.5799,2.5826,2.5809,2.5783,2.5751,2.5757,2.5719,2.5702,2.5721,2.5666,2.5673,2.5675,2.566,2.5653,2.5746,2.5705,2.5747,2.5814,2.5836,2.5849,2.5859,2.5893,2.5906,2.5754,2.5754,2.5754,0,2.5887,2.5897,2.5845,2.5861,2.5855,2.5788,2.5816,2.5802,2.5777,2.5775,2.5743,2.5745,2.5724,2.5754,2.5777,2.5773,2.578,2.5751,2.5851,2.5861,2.587,2.5902,2.5915,2.5759,2.5759,2.5758,2.5758,0,2.5982,2.599,2.6016,2.5992,2.5989,2.6011,2.5963,2.5966,2.5932,2.5903,2.5924,2.5897,2.5888,2.5892,2.5859,2.5918,2.5901,2.5861,2.5806,2.5892,2.592,2.5932,2.5767,2.5765,2.5764,2.5762,0,0,2.6139,2.6086,2.6097,2.6085,2.6051,2.6057,2.6076,2.6067,2.6071,2.6056,2.6071,2.6074,2.6037,2.6029,2.5993,2.6013,2.609,2.5971,2.5969,2.5994,2.6154,2.6184,2.6199,2.6061,2.6063,2.6065,2.6156,0,2.623,2.6259,2.6213,2.6253,2.626,2.6196,2.6213,2.6194,2.6168,2.617,2.6141,2.6145,2.6095,2.609,2.6107,2.6077,2.6121,2.607,2.6075,2.6076,2.6084,2.6214,2.6246,2.6333,2.6167,2.6168,2.617,0,2.6341,2.6331,2.6372,2.6335,2.6336,2.6352,2.634,2.6343,2.6321,2.63,2.6292,2.625,2.6266,2.6212,2.6235,2.6201,2.62,2.6186,2.6188,2.6188,2.6129,2.6217,2.636,2.6373,2.6187,2.6185,2.6184,0,2.6452,2.6449,2.6472,2.6465,2.6423,2.6435,2.6419,2.6394,2.6391,2.6381,2.6379,2.6371,2.6367,2.6363,2.632,2.6284,2.6347,2.629,2.6331,2.6333,2.6348,2.6348,2.6493,2.6347,2.6347,2.6347,2.6346,0,2.6559,2.6587,2.6522,2.6537,2.6566,2.6512,2.6543,2.6519,2.6498,2.6507,2.6452,2.6462,2.6404,2.6409,2.6375,2.6399,2.6397,2.6382,2.6373,2.6387,2.6389,2.6387,2.638,2.635,2.6349,2.6349,2.6348,0,2.6689,2.6646,2.6668,2.6626,2.6616,2.664,2.6605,2.6617,2.6587,2.66,2.66,2.6553,2.6555,2.6511,2.6505,2.6482,2.6521,2.6501,2.6529,2.6523,2.6567,2.6564,2.6716,2.6734,2.6576,2.6578,2.6579,0,2.676,2.678,2.674,2.6743,2.6729,2.6733,2.673,2.6678,2.6678,2.6654,2.667,2.6667,2.6662,2.6669,2.6635,2.6629,2.6609,2.6663,2.6608,2.6622,2.6611,2.661,2.6612,2.6675,2.6677,2.6678,2.6679,0,2.6892,2.687,2.6868,2.6859,2.6857,2.6847,2.6834,2.6839,2.6783,2.6786,2.6787,2.6783,2.6776,2.6775,2.6763,2.6746,2.6704,2.6697,2.6706,2.6722,2.6737,2.673,2.6561,2.6694,2.6692,2.6691,2.6691,2.669,2.6995,2.701,2.6984,2.6984,2.6968,2.6958,2.6967,2.6938,2.6938,2.6928,2.6898,2.6905,2.6882,2.6862,2.6849,2.6854,2.6827,2.6841,2.6844,2.6849,2.6857,2.6736,2.6851,2.6851,2.685,2.685,2.685,0,2.7125,2.7105,2.7105,2.7088,2.7089,2.7048,2.7031,2.7034,2.7041,2.7023,2.7019,2.7021,2.7019,2.6985,2.6979,2.699,2.697,2.699,2.6989,2.6986,2.6881,2.6874,2.7006,2.7006,2.7006,2.7006,2.7006,2.7006,2.7192,2.7215,2.719,2.7205,2.7185,2.7191,2.7185,2.7175,2.716,2.7165,2.7163,2.714,2.7116,2.7108,2.7105,2.7094,2.7095,2.7122,2.7106,2.7008,2.6993,2.6979,2.6972,2.7122,2.7122,2.721,2.7211,2.7211]}]]